{"data":{"norad_id":68514,"intl_designator":"2026-068G","name":"STARLINK-37251","alt_names":[],"object_type":"PAYLOAD","status":"ACTIVE","operator":null,"country":"US","launch_date":"2026-03-30","launch_site_code":"AFETR","launch_vehicle":null,"mission":null,"orbit_class":"UNKNOWN","rcs_meters":null,"size_class":null,"mass_kg":null,"dimensions":null,"purposes":["comms"],"wikipedia_slug":null,"has_3d_model":false,"image_url":null,"decayed_at":null,"tle_current":{"epoch":"2026-05-25T03:16:14.134944Z","epoch_age_seconds":66801,"freshness":"FRESH","line1":"1 68514U 26068G   26145.13627471  .00032785  00000+0  75889-3 0  9999","line2":"2 68514  53.1576 133.8901 0001259  67.5024 292.6115 15.42188385  8659","mean_motion":15.42188385,"eccentricity":0.0001259,"inclination_deg":53.1576,"raan_deg":133.8901,"arg_perigee_deg":67.5024,"mean_anomaly_deg":292.6115,"bstar":0.00075889,"rev_number":865,"period_min":93.373806598861,"perigee_km":438.79363549397,"apogee_km":440.51035476294,"semimajor_km":6817.7889951285,"source":"CELESTRAK","updated_at":"2026-05-25T13:38:21.953650Z"}}}